Location: Caltech
(34.1382°N, 118.1253°W)
Time: 02:47:45
(UTC-07:00)

RS-15 - Visible Passes

Search period start: 21 April 2015 00:00
Search period end: 01 May 2015 00:00
Orbit: 1894 x 2150 km, 64.8° (Epoch: 18 April)

Date Brightness Start Highest point End Pass type
(mag) Time Alt. Az. Time Alt. Az. Time Alt. Az.
21 Apr 8.3 01:41:12 10° NW 01:50:10 55° WNW 01:50:10 55° WNW visible
21 Apr 10.0 20:41:51 10° N 20:44:43 11° N 20:47:49 10° NNE visible
21 Apr 9.2 22:53:21 10° NNW 23:02:50 30° NE 23:07:25 24° ENE visible
22 Apr 8.0 01:05:02 10° NNW 01:15:08 71° NW 01:15:08 71° NW visible
22 Apr 9.6 03:21:07 10° WNW 03:22:52 13° WNW 03:22:52 13° WNW visible
22 Apr 10.0 20:04:58 10° NNW 20:07:15 11° N 20:09:33 10° NNE visible
22 Apr 9.4 22:17:34 10° NNW 22:26:00 23° NE 22:32:24 16° ENE visible
23 Apr 8.0 00:29:00 10° NNW 00:40:08 78° NNE 00:40:08 78° NNE visible
23 Apr 9.3 02:43:20 10° NW 02:47:52 20° WNW 02:47:52 20° WNW visible
23 Apr 9.6 21:41:47 10° N 21:48:59 19° NNE 21:56:52 10° ENE visible
23 Apr 8.1 23:53:02 10° NNW 00:04:31 63° NE 00:05:10 62° ENE visible
24 Apr 9.0 02:06:20 10° NW 02:12:54 29° WNW 02:12:54 29° WNW visible
24 Apr 9.7 21:05:58 10° N 21:11:49 15° NNE 21:18:16 10° ENE visible
24 Apr 8.4 23:17:08 10° NNW 23:28:12 49° NE 23:30:15 46° ENE visible
25 Apr 8.6 01:29:44 10° NW 01:37:59 41° WNW 01:37:59 41° WNW visible
25 Apr 9.8 20:30:06 10° N 20:34:30 13° NNE 20:39:22 10° NE visible
25 Apr 8.8 22:41:17 10° NNW 22:51:44 39° NE 22:55:21 33° E visible
26 Apr 8.2 00:53:23 10° NW 01:03:05 57° W 01:03:05 57° W visible
26 Apr 9.9 19:54:02 10° N 19:57:06 11° N 20:00:25 10° NNE visible
26 Apr 9.1 22:05:28 10° NNW 22:15:06 31° NE 22:20:29 23° E visible
27 Apr 8.0 00:17:12 10° NNW 00:28:13 77° W 00:28:13 77° W visible
27 Apr 9.6 02:33:39 10° WNW 02:35:58 13° W 02:35:58 13° W visible
27 Apr 9.3 21:29:40 10° NNW 21:38:17 24° NE 21:45:38 14° E visible
27 Apr 7.9 23:41:09 10° NNW 23:52:51 82° ENE 23:53:23 81° E visible
28 Apr 9.3 01:55:41 10° NW 02:01:08 21° W 02:01:08 21° W visible
28 Apr 9.5 20:53:53 10° NNW 21:01:18 19° NNE 21:09:23 10° ENE visible
28 Apr 8.1 23:05:10 10° NNW 23:16:42 65° ENE 23:18:35 60° E visible
29 Apr 8.9 01:18:36 10° NW 01:26:20 31° W 01:26:20 31° W visible
29 Apr 9.6 20:18:05 10° N 20:24:09 16° NNE 20:30:50 10° ENE visible
29 Apr 8.4 22:29:16 10° NNW 22:40:25 51° NE 22:43:48 43° E visible
30 Apr 8.6 00:41:57 10° NW 00:51:33 43° W 00:51:33 43° W visible
30 Apr 8.7 21:53:25 10° NNW 22:03:58 40° NE 22:09:04 29° E visible
